Weather History for Ogallala, NE

Change the Weather History Date:

Wednesday, May 1, 2013

  Actual Average Record
Temperature  
Mean Temperature 36 °F -  
Max Temperature 38 °F 64 °F 95 °F (1992)
Min Temperature 31 °F 37 °F 21 °F (2005)
Degree Days  
Heating Degree Days 29    
Moisture  
Dew Point 31 °F    
Average Humidity 90    
Maximum Humidity 95    
Minimum Humidity 76    
Precipitation  
Precipitation 0.37 in - - ()
Sea Level Pressure  
Sea Level Pressure 30.34 in    
Wind  
Wind Speed 16 mph (NNE)    
Max Wind Speed 29 mph    
Max Gust Speed 36 mph    
Visibility 4 miles    
Events Rain , Snow , Thunderstorm    
Averages and records for this station are not official NWS values.
T = Trace of Precipitation, MM = Missing Value Source: NWS Daily Summary

Daily Weather History Graph

Daily Weather History Graph

Search for Another Location

Airport:

Trip Planner

Search our weather history database for the weather conditions in past years. The results will help you decide how hot, cold, wet, or windy it might be!

Date:

Astronomy

May. 01, 2013 Rise Set
Actual Time 5:44 AM MDT 7:44 PM MDT
Civil Twilight 5:14 AM MDT 8:14 PM MDT
Nautical Twilight 4:38 AM MDT 8:51 PM MDT
Astronomical Twilight 3:58 AM MDT 9:31 PM MDT
Moon 12:55 AM MDT (5/1) 11:25 AM MDT (5/1)
Length of Visible Light 14h 59m
Length of Day
13h 59m
Waning Gibbous, 58% of the Moon is Illuminated
May 1
Waning Gibbous
May 2
Last Quarter
May 9
New
May 17
First Quarter
May 24
Full

Hourly Weather History & Observations

Time (MDT) Temp. Windchill Dew Point Humidity Pressure Visibility Wind Dir Wind Speed Gust Speed Precip Events Conditions
12:15 AM 41.2 °F 30.7 °F 34.0 °F 76% 30.04 in 10.0 mi NE 26.5 mph 34.5 mph N/A Thunderstorm Thunderstorm
12:35 AM 39.6 °F 28.1 °F 34.7 °F 83% 30.01 in 10.0 mi NE 28.8 mph 35.7 mph N/A   Drizzle
12:55 AM 39.0 °F 28.8 °F 34.7 °F 84% 30.04 in 10.0 mi NE 21.9 mph 26.5 mph 0.01 in Rain , Thunderstorm Light Thunderstorms and Rain
1:15 AM 37.6 °F 27.4 °F 34.3 °F 88% 30.07 in 7.0 mi NE 19.6 mph - 0.03 in Rain Light Rain
1:35 AM 37.6 °F 28.1 °F 34.7 °F 89% 30.08 in 10.0 mi NE 17.3 mph 21.9 mph 0.04 in Rain , Thunderstorm Thunderstorms and Rain
2:15 AM 36.7 °F 28.4 °F 34.0 °F 90% 30.11 in 10.0 mi NNE 12.7 mph 20.7 mph 0.01 in Rain , Thunderstorm Light Thunderstorms and Rain
2:35 AM 35.6 °F 25.9 °F 33.3 °F 91% 30.10 in 7.0 mi NE 16.1 mph 20.7 mph 0.03 in Rain Light Rain
2:55 AM 35.6 °F 27.5 °F 33.3 °F 91% 30.14 in 5.0 mi NNE 11.5 mph 19.6 mph 0.05 in Rain Rain
3:15 AM 35.1 °F 24.5 °F 33.1 °F 92% 30.12 in 5.0 mi NE 18.4 mph - 0.02 in Rain Light Rain
3:35 AM 34.7 °F 24.3 °F 32.9 °F 93% 30.13 in 4.0 mi NE 17.3 mph 23.0 mph 0.05 in Rain Light Rain
3:55 AM 34.2 °F 24.8 °F 32.5 °F 94% 30.14 in 2.5 mi NE 13.8 mph 17.3 mph 0.06 in Snow Light Snow
4:15 AM 34.0 °F 24.6 °F 32.5 °F 94% 30.15 in 3.0 mi NE 13.8 mph - 0.02 in Snow Light Snow
4:35 AM 34.0 °F 24.6 °F 32.5 °F 94% 30.16 in 2.5 mi ENE 13.8 mph - 0.03 in Snow Light Snow
4:55 AM 33.8 °F 23.9 °F 32.4 °F 94% 30.16 in 1.0 mi ENE 15.0 mph - 0.04 in Snow Light Snow
5:15 AM 33.8 °F 25.3 °F 32.4 °F 94% 30.18 in 2.5 mi ENE 11.5 mph - 0.02 in Snow Light Snow
5:35 AM 33.8 °F 25.8 °F 32.4 °F 94% 30.20 in 2.0 mi NE 10.4 mph - 0.04 in Snow Light Snow
5:55 AM 33.8 °F 22.8 °F 32.5 °F 95% 30.21 in 1.5 mi NE 18.4 mph 23.0 mph 0.07 in Snow Light Snow
6:15 AM 34.0 °F 24.6 °F 32.2 °F 93% 30.23 in 2.0 mi NE 13.8 mph 21.9 mph 0.02 in Snow Light Snow
6:35 AM 33.8 °F 25.8 °F 32.2 °F 94% 30.24 in 1.0 mi NE 10.4 mph - 0.04 in Snow Light Snow
7:15 AM 33.1 °F 21.5 °F 31.8 °F 95% 30.27 in 0.5 mi NNE 19.6 mph - 0.01 in Snow Snow
7:35 AM 32.9 °F 22.4 °F 31.6 °F 95% 30.29 in 0.8 mi NNE 16.1 mph - 0.02 in Snow Light Snow
7:55 AM 32.9 °F 21.3 °F 30.7 °F 92% 30.29 in 1.0 mi NNE 19.6 mph 26.5 mph 0.03 in Snow Light Snow
8:15 AM 32.9 °F 22.0 °F 30.9 °F 92% 30.30 in 1.0 mi NNE 17.3 mph - 0.01 in Snow Light Snow
8:35 AM 32.0 °F 20.1 °F 30.0 °F 92% 30.30 in 0.5 mi NNE 19.6 mph - 0.01 in Snow Light Snow
9:15 AM 32.0 °F 19.5 °F 29.3 °F 90% 30.31 in 0.8 mi NNE 21.9 mph 26.5 mph N/A Snow Light Snow
9:35 AM 31.5 °F 19.1 °F 28.9 °F 90% 30.33 in 0.5 mi NNE 20.7 mph 26.5 mph N/A Snow Snow
10:15 AM 31.5 °F 19.4 °F 28.8 °F 90% 30.34 in 0.5 mi NNE 19.6 mph - 0.01 in Snow Snow
10:35 AM 32.0 °F 20.5 °F 28.8 °F 88% 30.35 in 1.0 mi North 18.4 mph 21.9 mph 0.01 in Snow Light Snow
10:55 AM 32.0 °F 20.1 °F 28.8 °F 88% 30.35 in 1.2 mi North 19.6 mph 25.3 mph 0.01 in Snow Light Snow
11:15 AM 32.2 °F 20.7 °F 29.3 °F 89% 30.36 in 1.0 mi NNE 18.4 mph 23.0 mph N/A Snow Light Snow
11:35 AM 32.0 °F 20.8 °F 29.3 °F 90% 30.38 in 0.5 mi NNE 17.3 mph - N/A Snow Light Snow
11:55 AM 31.6 °F 19.0 °F 28.4 °F 88% 30.38 in 0.8 mi NNE 21.9 mph 26.5 mph N/A Snow Light Snow
12:15 PM 31.8 °F 20.2 °F 28.8 °F 88% 30.38 in 0.5 mi NNE 18.4 mph - N/A Snow Light Snow
12:35 PM 31.6 °F 20.4 °F 28.4 °F 88% 30.38 in 0.5 mi NNE 17.3 mph - N/A Snow Snow
1:15 PM 31.3 °F 19.5 °F 28.0 °F 88% 30.39 in 0.2 mi NNE 18.4 mph - N/A Snow Snow
1:35 PM 31.5 °F 19.8 °F 28.4 °F 88% 30.40 in 0.2 mi NNE 18.4 mph - N/A Snow Snow
2:15 PM 32.0 °F 22.5 °F 29.1 °F 89% 30.42 in 0.5 mi NNE 12.7 mph - N/A Snow Snow
2:35 PM 32.0 °F 21.6 °F 28.6 °F 87% 30.43 in 0.5 mi NNE 15.0 mph - N/A Snow Light Snow
2:55 PM 32.0 °F 22.1 °F 28.6 °F 87% 30.44 in 0.8 mi NNE 13.8 mph - N/A Snow Light Snow
3:15 PM 32.0 °F 23.6 °F 29.3 °F 90% 30.45 in 0.2 mi NNE 10.4 mph - N/A Snow Snow
3:35 PM 32.0 °F 23.0 °F 30.0 °F 92% 30.44 in 0.2 mi NNE 11.5 mph - 0.01 in Snow Snow
3:55 PM 32.0 °F 22.5 °F 29.8 °F 92% 30.44 in 0.5 mi NNE 12.7 mph - 0.01 in Snow Light Snow
4:15 PM 32.0 °F 23.0 °F 29.8 °F 92% 30.44 in 0.5 mi NNE 11.5 mph - N/A Snow Snow
4:35 PM 32.0 °F 22.5 °F 29.1 °F 89% 30.45 in 0.5 mi NNE 12.7 mph - N/A Snow Light Snow
5:15 PM 32.0 °F 27.5 °F 29.5 °F 90% 30.46 in 1.0 mi NNE 4.6 mph - N/A Snow Light Snow
5:35 PM 32.0 °F - 29.3 °F 90% 30.47 in 2.0 mi Calm Calm - N/A Snow Light Snow
5:55 PM 32.0 °F - 29.7 °F 91% 30.48 in 10.0 mi Calm Calm - N/A   Overcast
6:15 PM 32.0 °F - 29.3 °F 90% 30.49 in 10.0 mi Calm Calm - N/A   Overcast
6:35 PM 31.8 °F - 29.3 °F 90% 30.49 in 10.0 mi Calm Calm - N/A   Mostly Cloudy
6:55 PM 31.8 °F 27.3 °F 30.0 °F 93% 30.50 in 10.0 mi West 4.6 mph - N/A   Scattered Clouds
7:35 PM 31.6 °F - 29.5 °F 92% 30.50 in 10.0 mi Calm Calm - N/A   Scattered Clouds
7:55 PM 32.0 °F 28.7 °F 29.3 °F 90% 30.51 in 10.0 mi NNW 3.5 mph - N/A   Clear
8:35 PM 32.9 °F 27.5 °F 29.1 °F 86% 30.52 in 10.0 mi NW 5.8 mph - N/A   Mostly Cloudy
8:55 PM 32.9 °F 25.9 °F 29.7 °F 88% 30.52 in 10.0 mi NW 8.1 mph - N/A   Overcast
9:15 PM 33.3 °F 26.4 °F 30.2 °F 89% 30.54 in 10.0 mi NW 8.1 mph - N/A   Scattered Clouds
9:35 PM 33.8 °F 27.0 °F 30.2 °F 87% 30.54 in 10.0 mi NNW 8.1 mph - N/A   Clear
9:55 PM 33.3 °F 26.4 °F 30.7 °F 90% 30.55 in 10.0 mi NNW 8.1 mph - N/A   Clear
10:15 PM 33.4 °F 26.6 °F 30.7 °F 90% 30.55 in 10.0 mi NW 8.1 mph - N/A   Clear
10:35 PM 33.3 °F 26.4 °F 30.6 °F 90% 30.55 in 10.0 mi NNW 8.1 mph - N/A   Clear
10:55 PM 33.1 °F 26.1 °F 30.6 °F 90% 30.56 in 10.0 mi NW 8.1 mph - N/A   Clear
11:15 PM 32.9 °F 26.7 °F 30.6 °F 91% 30.56 in 10.0 mi NNW 6.9 mph - N/A   Clear
11:35 PM 33.1 °F 26.1 °F 30.2 °F 89% 30.56 in 10.0 mi NNW 8.1 mph - N/A   Clear
11:55 PM 33.1 °F 26.1 °F 30.2 °F 89% 30.56 in 10.0 mi NNW 8.1 mph - N/A   Clear